Flag for U.S.A. Weather past 2 weeks in Green Bay, Wisconsin, U.S.A.

60 °F


Feels Like: 60 °F
Forecast: 44 / 64 °F
Wind: 8 mph from Southwest

Location: Austin Straubel International Airport

Current Time: Oct 8, 2015 at 3:59:41 PM

Latest Report: Oct 8, 2015 at 2:53 PM

Visibility: 8 mi

Pressure: 29.83 "Hg

Humidity: 90%

Dew point: 57 °F

Location of Green BayLocation

Historic Weather in Green Bay — Graph


Green Bay temperature yesterday

Maximum temperature yesterday: 60 °F (at 1:53 PM)
Minimum temperature yesterday: 43 °F (at 11:53 PM)
Average temperature yesterday: 52 °F

Past Weeks' High & Low Weather Summary

High81 °F (Sep 28, 1:53 PM)100% (Oct 8, 10:53 AM)30.54 "Hg (Oct 8, 10:53 AM)
Low39 °F (Oct 2, 5:53 AM)46% (Sep 30, 4:53 PM)29.83 "Hg (Oct 8, 2:53 PM)
Average57 °F77%30.23 "Hg
* Reported Sep 23 2:53 PM — Oct 8 2:53 PM, Green Bay, Weather by CustomWeather, © 2015

Note: Actual official high and low records may vary slightly from our data, if they occured in-between our weather recording intervals... More about our weather records


Green Bay weather history for previous 24 hours

Time TempWeatherWind HumidityBarometerVisibility
2:53 PM
Thu, Oct 8
60 °FOvercast.8 mph90%29.83 "Hg8 mi
1:53 PM58 °FMostly cloudy.8 mph93%29.84 "Hg7 mi
12:53 PM56 °FLight rain. More clouds than sun.12 mph93%29.86 "Hg9 mi
11:53 AM54 °FLight rain. Fog.10 mph97%29.89 "Hg5 mi
10:53 AM52 °FHeavy rain. Fog.6 mph100%29.94 "Hg1 mi
9:53 AM51 °FRain. Fog.5 mph96%29.98 "Hg2 mi
8:53 AM54 °FMostly cloudy.3 mph86%29.99 "Hg10 mi
7:53 AM52 °FPassing clouds.10 mph89%29.99 "Hg10 mi
6:53 AM49 °FPassing clouds.No wind90%30.01 "Hg10 mi
5:53 AM47 °FMostly cloudy.No wind90%30.04 "Hg10 mi
4:53 AM46 °FPassing clouds.6 mph89%30.06 "Hg10 mi
3:53 AM42 °FPassing clouds.3 mph96%30.09 "Hg10 mi
2:53 AM41 °FClear.3 mph93%30.11 "Hg10 mi
12:53 AM40 °FClear.No wind97%30.14 "Hg8 mi
11:53 PM
Wed, Oct 7
43 °FClear.No wind89%30.15 "Hg10 mi
10:53 PM44 °FClear.No wind93%30.16 "Hg10 mi
9:53 PM47 °FClear.3 mph86%30.17 "Hg10 mi
8:53 PM48 °FClear.3 mph80%30.19 "Hg10 mi
7:53 PM49 °FClear.5 mph77%30.19 "Hg10 mi
6:53 PM49 °FSunny.5 mph74%30.19 "Hg10 mi
5:53 PM54 °FSunny.6 mph62%30.19 "Hg10 mi
4:53 PM59 °FSunny.7 mph51%30.19 "Hg10 mi
3:53 PM59 °FSunny.3 mph49%30.19 "Hg10 mi
Weather by CustomWeather, © 2015

See weather overviewHow to use our weather pages